C/2017 C2 ( PanSTARRS )

Japanese version
Home page
Updated on May 22, 2017

---------------------------------------------------------------------

* Profile

Discovery Date February 4, 2017
Magnitude 19.6 mag
Discoverer Pan-STARRS 1 telescope (Haleakala)

* Pictures

* Orbital Elements

Epoch 2017 Jan. 7.0 TT = JDT 2457760.5
T 2017 Jan. 21.58181 TT                                 MPCW
q   2.4310876            (2000.0)            P               Q
z  +0.0098932      Peri.  138.76156     -0.03658129     +0.56510940
 +/-0.0000783      Node   249.81768     +0.51713689     +0.71644352
e   0.9759489      Incl.  118.58340     +0.85512060     -0.40909662
From 78 observations 2017 Feb. 4-Mar. 28, mean residual 0".5.

* Magnitudes Graph

        m1 = 13.0 + 5 log d + 10.0 log r

---------------------------------------------------------------------

The orbital elements are published on M.P.E.C. 2017-J52.
The magnitudes graphs are made with Comet for Windows.

---------------------------------------------------------------------

Copyright(C) Seiichi Yoshida (comet@aerith.net). All rights reserved.